Tracking 29932 objects as of 4-Dec-2024
HD Live streaming from Space Station
objects crossing your sky now

STARLINK-32195

Track STARLINK-32195 now!
10-day predictions
STARLINK-32195 is classified as:


NORAD ID: 60440
Int'l Code: 2024-144R
Perigee: 481.6 km
Apogee: 483.1 km
Inclination: 53.2 °
Period: 94.1 minutes
Semi major axis: 6853 km
RCS: Unknown
Launch date: August 12, 2024
Source: United States (US)
Launch site: AIR FORCE EASTERN TEST RANGE (AFETR)
Your satellite tracking list
Your tracking list is empty




NASA's NSSDC Master Catalog

Two Line Element Set (TLE):
1 60440U 24144R   24338.77790988  .00000639  00000-0  33696-4 0  9993
2 60440  53.1610 197.8690 0001148 108.2011 251.9115 15.30200959 18680
Source of the keplerian elements: AFSPC